Regional Weather Roundup
Issued by NWS Upton, NY

Current Version | Previous Version | Text Only | Print | Product List | Glossary On
Versions: 1 2 3 4 5 6 7 8 9 10 11 12 13 14 15 16 17 18 19 20 21 22 23 24 25 26 27
000
ASUS41 KOKX 251009
RWROKX

REGIONAL WEATHER ROUNDUP
NATIONAL WEATHER SERVICE NEW YORK NY
600 AM EDT TUE JUL 25 2017

NOTE: "FAIR" INDICATES FEW OR NO CLOUDS BELOW 12,000 FEET WITH NO
SIGNIFICANT WEATHER AND/OR OBSTRUCTIONS TO VISIBILITY.

NYZ071-072-176-178-NJZ106-104-251100-
NEW YORK CITY METRO AREA

CITY           SKY/WX    TMP DP  RH WIND       PRES   REMARKS
Central Park   CLOUDY    63  59  87 CALM      30.04R
Bronx Bot Gard   N/A     59  57  94 E2        30.02R
LaGuardia APRT CLOUDY    62  60  93 NE7       30.01R
Kennedy INTL   CLOUDY    64  60  87 NE9       30.02R
Breezy Point     N/A     63 N/A N/A NE8         N/A
Newark/Liberty DRIZZLE   62  60  93 N7        30.01R FOG
Teterboro      CLOUDY    62  59  90 N3        30.00R
$$

NYZ177-179-078>081-251100-
LONG ISLAND NEW YORK

CITY           SKY/WX    TMP DP  RH WIND       PRES   REMARKS
Jones Beach      N/A     63 N/A N/A NE12        N/A
Matinecock PT    N/A     61 N/A N/A NE13        N/A
Farmingdale    CLOUDY    62  57  83 NE6       30.01R
MacArthur/ISP  CLOUDY    63  58  83 N7        30.01R
Shirley        CLOUDY    63  59  87 CALM      30.02R
Mt Sinai Harb    N/A    N/A N/A N/A NE5         N/A
Westhampton    CLOUDY    62  57  83 CALM      30.02R
East Hampton   CLOUDY    60  56  88 NE5       30.01R
Montauk          N/A     61  57  87 N7        30.03R
$$

NYZ052-065-067-251100-
HUDSON VALLEY

CITY           SKY/WX    TMP DP  RH WIND       PRES   REMARKS
White Plains   MOCLDY    59  56  89 E3        30.01R
Larchmont Harb   N/A     59 N/A N/A N10         N/A
Croton O-T Hud   N/A     59 N/A N/A MISG        N/A
Newburgh       CLOUDY    57  57 100 E7        30.03R FOG
Montgomery     CLOUDY    59  58  96 NE3       30.02R FOG
Poughkeepsie   CLOUDY    58  55  90 CALM      30.02R
Albany         CLOUDY    58  54  86 S3        30.03R
$$

NJZ001-105-106-008-010-013-015-019>022-104-251100-
NEW JERSEY

CITY           SKY/WX    TMP DP  RH WIND       PRES   REMARKS
Newark/Liberty DRIZZLE   62  60  93 N7        30.01R FOG
Teterboro      CLOUDY    62  59  90 N3        30.00R
Caldwell       CLOUDY    60  59  96 E8        30.02R
Somerville     CLOUDY    63  60  90 CALM      30.00R
Linden         CLOUDY    63  58  84 CALM      30.01R
Perth Amboy      N/A     63 N/A N/A NE8         N/A
Sussex         CLOUDY    60  59  96 NE3       30.02R
Andover          N/A     60  59  96 CALM      30.02R
Trenton        CLOUDY    64  63  96 NE6       30.00R
Millville      LGT RAIN  68  68 100 N5        29.98R FOG
Atlantic City  CLOUDY    69  69 100 N5        29.97R FOG
Wrightstown    CLOUDY    64  63  96 NE6       29.97R
Toms River     LGT RAIN  65  64  97 NE6       29.99R FOG
Belmar         LGT RAIN  63  63 100 NE7       30.01R FOG
$$

PAZ047>061-062-071-251100-
EASTERN PENNSYLVANIA

CITY           SKY/WX    TMP DP  RH WIND       PRES   REMARKS
Philadelphia   CLOUDY    67  64  90 NE6       30.00R
Allentown      CLOUDY    67  62  84 CALM      30.00R
Scranton       CLOUDY    67  64  90 CALM      30.00R
$$

CTZ002-004>006-009-010-012-RIZ004-006-007-MAZ004-011-015-251100-
SOUTHERN NEW ENGLAND
 IN CT

CITY           SKY/WX    TMP DP  RH WIND       PRES   REMARKS
Bradley INTL   DRIZZLE   57  55  93 N5        30.04R
Hartford       CLOUDY    58  55  90 N7        30.03R
Danbury        CLOUDY    58  56  93 E6        30.04R
Wtrbury/Oxford CLOUDY    55  52  88 NE5       30.04R FOG
Bridgeport     LGT RAIN  61  55  81 NE10      30.02R
Meriden        CLOUDY    58  55  90 N6        30.04R
New Haven      CLOUDY    60  55  83 N7        30.03R
Chester        CLOUDY    57  55  94 N3        30.03R
Groton         CLOUDY    60  55  83 N6        30.01S
Wilimantic     CLOUDY    60  55  83 N3        30.04R

 IN RI

CITY           SKY/WX    TMP DP  RH WIND       PRES   REMARKS
Providence     CLOUDY    59  58  96 NE10      30.03R
Block Island   CLOUDY    60  57  89 N9        30.01R
Westerly       CLOUDY    60  56  86 N6        30.02R
 IN MA

CITY           SKY/WX    TMP DP  RH WIND       PRES   REMARKS
Boston         CLOUDY    56  55  97 N9        30.03R FOG
Worcester      CLOUDY    52  51  97 N8        30.04R FOG
Westfield      CLOUDY    56  55  97 N7        30.04R
Provincetown   CLOUDY    58  56  93 N10       30.01R
Nantucket      CLOUDY    61  59  93 N14       29.99R
$$

ANZ330-335-338-340-345-350-353-355-251100-
COASTAL MARINE OBSERVATIONS


STATION/POSITION TIME  SKY/WX   TEMP    WIND        PRES    VSBY  WAVE
                                AIR SEA DIR/SP/G                  HT/PER
                 (UTC)          (F)     (DEG/KT/KT) (MB)    (MI)  (FT/S)
NY HARB ENTRANCE 0850            65 71   50/ 14/ 16 1014.5          4/ 6
20 S FIRE ISLAND 0950            66 73   60/ 12/ 16 1014.8          5/ 6
GREAT SOUTH BAY  0930            64 76   50/ 10/ 14   N/A
23 SSW MONTAUK P 0850            63 72              1015.9          5/ 6
15 E BARNEGAT LI 0930               71                N/A           4/ 7
HUDSON CANYON    0850            69 74   80/ 12/ 14 1013.3          4/ 7
KINGS POINT      0936            62 71   80/  5/  6 1016.0
EXECUTION ROCKS  0945            63      60/ 10/ 14   N/A
CENTRAL LI SOUND 0915            62      30/ 10/ 14   N/A           1
EASTERN LI SOUND NOT AVBL
ROBBINS REEF     0936                    50/  7/ 10 1016.5
$$


>>>>>>>>>>>>>>>>>>>>>>>>>>>> KEY <<<<<<<<<<<<<<<<<<<<<<<<<<<
>                                                          <
>     SKY/WX - Sky Condition/Present Weather               <
>     TMP    - Temperature in Fahrenheit                   <
>     DP     - Dew Point in Fahrenheit                     <
>     RH     - Relative Humidity in Percent                <
>     WIND   - Direction (from) and Speed in MPH           <
>     PRES   - Mean Sea Level Pressure (inches of Hg)      <
>     WCI    - Wind Chill Index                            <
>     VSB    - VISIBILITY IN MILES                         <
>     HX     - HEAT INDEX                                  <
>     TC     - TEMPERATURE IN CELSIUS                      <
>     VRB    - VARIABLE WIND DIRECTION                     <
>                                                          <
>>>>>>>>>>>>>>>>>>>>>>>>>>>> KEY <<<<<<<<<<<<<<<<<<<<<<<<<<<




USA.gov is the U.S. government's official web portal to all federal, state and local government web resources and services.